Chicago, IL

4:40 AM CST on December 08, 2019 (GMT -0600)
Chicago-O'Hare International

Weather History for KORD - November, 2019

Change the Weather History Date:

Saturday, November 16, 2019

  Actual Average Record
Temperature  
Mean Temperature 34 °F 40 °F  
Max Temperature 42 °F 48 °F 73 °F (1952)
Min Temperature 26 °F 32 °F 6 °F (1959)
Degree Days  
Heating Degree Days 31 25  
Month to date heating degree days 535 340  
Since 1 July heating degree days 986 855  
Cooling Degree Days 0 0  
Month to date cooling degree days 0 0  
Year to date cooling degree days 960 843  
Moisture  
Dew Point 27 °F    
Average Humidity 78    
Maximum Humidity 92    
Minimum Humidity 59    
Precipitation  
Precipitation 0.00 in 0.10 in 1.20 in (1928)
Month to date precipitation 0.32 1.66  
Year to date precipitation 46.44 33.15  
Snow  
Snow 0.00 in 0.00 in 0.90 in (1920)
Month to date snowfall 3.7 0.2  
Since 1 July snowfall 8.3 0.4  
Since 1 September snowfall 8.3 0.4  
Snow Depth 1.0 in    
Sea Level Pressure  
Sea Level Pressure 30.36 in    
Wind  
Wind Speed 4 mph ()    
Max Wind Speed 13 mph    
Max Gust Speed 16 mph    
Visibility 8.3 miles    
Events      
T = Trace of Precipitation, MM = Missing Value Source: Averaged Metar Reports

Daily Weather History Graph

Daily Weather History Graph

Search for Another Location

Airport or City:

Astronomy

Nov. 16, 2019 Rise Set
Actual Time 6:42 AM CST 4:29 PM CST
Civil Twilight 6:12 AM CST 4:59 PM CST
Nautical Twilight 5:38 AM CST 5:33 PM CST
Astronomical Twilight 5:05 AM CST 6:06 PM CST
Moon 8:00 PM CST (11/16) 10:37 AM CST (11/16)
Length of Visible Light 10h 47m
Length of Day
9h 47m
Waning Gibbous, 82% of the Moon is Illuminated
Nov 16
Waning Gibbous
Nov 19
Last Quarter
Nov 26
New
Dec 4
First Quarter
Dec 11
Full

Hourly Weather History & Observations

Time (CST) Temp. Windchill Dew Point Humidity Pressure Visibility Wind Dir Wind Speed Gust Speed Precip Events Conditions
12:51 AM 27.0 °F 23.0 °F 24.1 °F 89% 30.42 in 7.0 mi North 3.5 mph - N/A   Mostly Cloudy
1:51 AM 27.0 °F - 25.0 °F 92% 30.42 in 7.0 mi Calm Calm - N/A   Mostly Cloudy
2:51 AM 28.0 °F - 25.0 °F 88% 30.41 in 8.0 mi Calm Calm - N/A   Scattered Clouds
3:51 AM 27.0 °F - 25.0 °F 92% 30.42 in 8.0 mi Calm Calm - N/A   Scattered Clouds
4:51 AM 26.1 °F - 24.1 °F 92% 30.43 in 7.0 mi Calm Calm - N/A   Partly Cloudy
5:51 AM 28.0 °F - 25.0 °F 88% 30.43 in 8.0 mi Calm Calm - N/A   Scattered Clouds
6:51 AM 28.9 °F - 26.1 °F 89% 30.44 in 6.0 mi Calm Calm - N/A   Scattered Clouds
7:51 AM 30.9 °F 27.5 °F 28.0 °F 89% 30.45 in 5.0 mi SE 3.5 mph - N/A   Mostly Cloudy
8:51 AM 35.1 °F 27.9 °F 30.0 °F 82% 30.44 in 6.0 mi ESE 9.2 mph - N/A   Haze
9:51 AM 36.0 °F 28.5 °F 28.0 °F 73% 30.43 in 7.0 mi SE 10.4 mph - N/A   Mostly Cloudy
10:51 AM 37.0 °F 31.0 °F 27.0 °F 67% 30.42 in 8.0 mi ESE 8.1 mph - N/A   Mostly Cloudy
11:51 AM 39.0 °F 32.8 °F 27.0 °F 62% 30.39 in 9.0 mi ESE 9.2 mph - N/A   Mostly Cloudy
12:51 PM 39.9 °F 35.1 °F 28.0 °F 63% 30.36 in 9.0 mi ESE 6.9 mph - N/A   Mostly Cloudy
1:51 PM 41.0 °F 37.1 °F 28.0 °F 60% 30.33 in 8.0 mi ESE 5.8 mph - N/A   Mostly Cloudy
2:51 PM 41.0 °F 36.4 °F 28.0 °F 60% 30.32 in 9.0 mi East 6.9 mph - N/A   Scattered Clouds
3:51 PM 39.0 °F 32.8 °F 28.9 °F 67% 30.30 in 9.0 mi East 9.2 mph - N/A   Scattered Clouds
4:51 PM 36.0 °F 30.3 °F 28.0 °F 73% 30.30 in 9.0 mi East 6.9 mph - N/A   Mostly Cloudy
6:51 PM 32.0 °F 26.4 °F 27.0 °F 82% 30.28 in 10.0 mi ESE 5.8 mph - N/A   Partly Cloudy
7:51 PM 33.1 °F 26.1 °F 27.0 °F 78% 30.26 in 10.0 mi SE 8.1 mph - N/A   Clear
8:51 PM 33.1 °F 26.1 °F 27.0 °F 78% 30.24 in 10.0 mi SE 8.1 mph - N/A   Clear
9:51 PM 32.0 °F 24.8 °F 26.1 °F 79% 30.24 in 10.0 mi SE 8.1 mph - N/A   Clear
10:51 PM 30.9 °F 23.5 °F 25.0 °F 79% 30.23 in 10.0 mi SE 8.1 mph - N/A   Clear
11:51 PM 30.9 °F 24.3 °F 24.1 °F 76% 30.22 in 10.0 mi SSE 6.9 mph - N/A   Partly Cloudy